DW0805 Ramloese DK current weather conditions

sailwx.info

Wind from 248 at 11 knots gusting 20

Air temperature 11.1° C
Dewpoint 9.5° C

Last reported at 2018-Apr-24 09:45 UTC.
Time now 2018-Apr-24 10:45 UTC

Location: N 56°01' E 012°05'.
View on Google Maps.

See reports from other nearby stations

  
Tides and Currents Weather Stations Pressure Air Temp Water Temp Dewpoint Dewpoint Depression Visibility Wind Speed Wind Dir Waves Ship Positions
date/time (UTC)wind fromknots sea level pressurealtimeterstation pressurevisibilityair tempwater tempwave heightnotes
2018-Apr-24 09:45 248 11 gusting 20 11.1
2018-Apr-24 09:35 243 14 gusting 19 11.1
2018-Apr-24 09:25 253 14 gusting 20 11.1
2018-Apr-24 09:15 251 15 gusting 20 11.1
2018-Apr-24 08:45 254 13 gusting 22 11.7
2018-Apr-24 08:35 288 10 gusting 17 11.1
2018-Apr-24 08:25 242 11 gusting 20 11.1
2018-Apr-24 08:15 240 10 gusting 17 11.1
2018-Apr-24 08:05 246 11 gusting 18 10.6
2018-Apr-24 07:55 244 11 gusting 17 10.6
2018-Apr-24 07:45 241 12 gusting 19 10.6
2018-Apr-24 07:25 227 12 gusting 19 10.0
2018-Apr-24 07:15 222 11 gusting 15 10.0
2018-Apr-24 06:55 217 10 gusting 17 9.4
2018-Apr-24 06:35 218 11 gusting 17 9.4
2018-Apr-24 06:15 239 10 gusting 15 8.9
2018-Apr-24 06:05 224 8 gusting 13 8.9
2018-Apr-24 05:55 231 10 gusting 14 8.9
2018-Apr-24 05:45 295 8 gusting 12 8.9
2018-Apr-24 05:35 311 8 gusting 11 8.3
2018-Apr-24 05:25 257 7 gusting 12 8.3
2018-Apr-24 05:05 265 5 gusting 10 8.3
2018-Apr-24 04:55 250 4 gusting 10 8.3
2018-Apr-24 04:45 293 6 gusting 12 8.3
2018-Apr-24 04:25 298 7 gusting 12 8.3
2018-Apr-24 04:15 256 8 gusting 13 8.3
2018-Apr-24 04:05 249 8 gusting 13 8.9
2018-Apr-24 03:55 241 8 gusting 13 8.9
2018-Apr-24 03:25 252 7 gusting 13 8.9
2018-Apr-24 03:15 250 9 gusting 14 8.3
2018-Apr-24 03:05 248 8 gusting 13 8.3
2018-Apr-24 02:55 253 7 gusting 13 8.3
2018-Apr-24 02:45 255 6 gusting 13 8.3
2018-Apr-24 02:35 241 7 gusting 13 8.3
2018-Apr-24 02:25 246 8 gusting 13 8.3
2018-Apr-24 02:15 252 7 gusting 10 8.3
2018-Apr-24 02:05 255 4 gusting 11 8.3
2018-Apr-24 01:55 254 5 gusting 11 8.3
2018-Apr-24 01:45 252 6 gusting 12 8.3
2018-Apr-24 01:35 251 6 gusting 12 8.3
2018-Apr-24 01:25 245 6 gusting 10 8.3
2018-Apr-24 01:15 253 7 gusting 12 8.3
2018-Apr-24 01:05 255 6 gusting 11 8.3
2018-Apr-24 00:55 257 6 gusting 11 8.3
2018-Apr-24 00:45 264 6 gusting 11 8.3
2018-Apr-24 00:35 262 6 gusting 12 8.3
2018-Apr-24 00:15 263 7 gusting 13 8.3
2018-Apr-24 00:05 265 7 gusting 14 8.3
2018-Apr-23 23:45 248 6 gusting 17 8.9
2018-Apr-23 23:25 274 7 gusting 14 8.9
2018-Apr-23 23:15 263 7 gusting 13 8.9
2018-Apr-23 23:05 256 6 gusting 15 8.9
2018-Apr-23 22:55 264 7 gusting 12 8.9
2018-Apr-23 22:45 264 8 gusting 14 8.9
2018-Apr-23 22:35 259 10 gusting 17 8.9
2018-Apr-23 22:25 262 10 gusting 19 8.9
2018-Apr-23 22:15 257 5 gusting 12 8.9
2018-Apr-23 22:05 252 6 gusting 13 8.9
2018-Apr-23 21:45 258 6 gusting 14 8.9
2018-Apr-23 21:35 253 7 gusting 14 8.9
2018-Apr-23 21:15 261 6 gusting 13 9.4
2018-Apr-23 20:45 252 8 gusting 14 9.4
2018-Apr-23 20:35 254 7 gusting 14 10.0
2018-Apr-23 20:25 250 9 gusting 15 10.0
2018-Apr-23 20:15 255 9 gusting 15 10.0
2018-Apr-23 20:05 290 6 gusting 13 10.6
2018-Apr-23 19:45 255 10 gusting 14 10.6
2018-Apr-23 19:35 267 7 gusting 14 10.6
2018-Apr-23 19:25 269 8 gusting 14 10.6
2018-Apr-23 19:05 262 8 gusting 14 10.6
2018-Apr-23 18:55 267 8 gusting 15 10.6
2018-Apr-23 18:45 282 8 gusting 15 10.6
2018-Apr-23 18:35 277 10 gusting 18 11.1
2018-Apr-23 18:15 258 11 gusting 18 11.1
2018-Apr-23 17:55 263 9 gusting 19 11.7
2018-Apr-23 17:45 271 10 gusting 18 11.7
2018-Apr-23 17:35 265 10 gusting 19 12.2
2018-Apr-23 17:25 273 11 gusting 17 12.8
2018-Apr-23 17:17 267 11 gusting 17 12.8
2018-Apr-23 17:05 261 11 gusting 17 12.8
2018-Apr-23 16:55 270 8 gusting 21 13.3
2018-Apr-23 16:45 261 12 gusting 19 13.9
2018-Apr-23 16:25 255 11 gusting 20 14.4
2018-Apr-23 16:15 242 13 gusting 20 13.9
2018-Apr-23 16:05 278 13 gusting 19 14.4
2018-Apr-23 15:55 265 12 gusting 19 14.4
2018-Apr-23 15:35 258 11 gusting 21 15.0
2018-Apr-23 15:25 255 7 gusting 19 15.0
2018-Apr-23 15:05 273 10 gusting 17 14.4
2018-Apr-23 14:45 273 11 gusting 20 15.0
2018-Apr-23 13:45 268 10 gusting 14 16.7
2018-Apr-23 13:35 288 11 gusting 19 16.7
2018-Apr-23 13:25 240 9 gusting 21 16.7
2018-Apr-23 13:15 275 7 gusting 18 16.7
2018-Apr-23 12:55 259 9 gusting 19 16.1
2018-Apr-23 12:45 270 8 gusting 15 16.7
2018-Apr-23 12:15 271 11 gusting 19 15.6
2018-Apr-23 12:05 295 12 gusting 18 15.6
2018-Apr-23 11:55 273 11 gusting 17 15.6
2018-Apr-23 11:15 281 11 gusting 21 15.6
2018-Apr-23 11:05 267 11 gusting 15 16.1
2018-Apr-23 10:55 265 6 gusting 14 16.1
2018-Apr-23 10:45 277 12 gusting 19 15.6
2018-Apr-23 10:35 271 6 gusting 13 15.6
2018-Apr-23 10:25 280 7 gusting 17 15.6
2018-Apr-23 10:05 292 8 gusting 14 15.0
2018-Apr-23 09:55 282 8 gusting 17 15.0
2018-Apr-23 09:45 288 10 gusting 19 14.4
2018-Apr-23 09:35 270 12 gusting 17 14.4
2018-Apr-23 09:25 287 10 gusting 15 13.9
2018-Apr-23 09:15 313 6 gusting 13 13.9
2018-Apr-23 09:05 279 10 gusting 19 13.3
2018-Apr-23 08:55 272 7 gusting 17 13.9
2018-Apr-23 08:45 279 10 gusting 21 13.3
2018-Apr-23 08:35 281 10 gusting 21 13.3
2018-Apr-23 08:25 269 12 gusting 18 13.3
2018-Apr-23 08:15 255 10 gusting 18 13.3
2018-Apr-23 07:55 258 5 gusting 13 13.3
2018-Apr-23 07:45 254 6 gusting 12 13.3
2018-Apr-23 07:35 237 5 gusting 11 13.3
2018-Apr-23 07:25 225 6 gusting 11 12.8
2018-Apr-23 06:55 214 6 gusting 10 11.7
2018-Apr-23 06:45 214 6 gusting 10 11.7
2018-Apr-23 06:15 182 6 gusting 10 10.6
2018-Apr-23 06:05 178 5 gusting 10 10.6
2018-Apr-23 05:55 184 5 gusting 11 10.6
2018-Apr-23 05:35 179 7 gusting 12 10.6
2018-Apr-23 05:25 179 5 gusting 11 10.6
2018-Apr-23 05:15 181 5 gusting 12 10.6
2018-Apr-23 05:05 176 6 gusting 11 10.0
2018-Apr-23 04:55 167 5 gusting 10 10.0
2018-Apr-23 04:35 164 4 gusting 8 10.0
2018-Apr-23 04:25 158 2 gusting 10 10.0
2018-Apr-23 03:55 142 6 gusting 11 10.0
2018-Apr-23 03:45 143 6 gusting 10 10.0
2018-Apr-23 03:35 148 6 gusting 12 10.0
2018-Apr-23 03:15 143 7 gusting 12 9.4
2018-Apr-23 02:55 152 6 gusting 11 9.4
2018-Apr-23 02:45 156 6 gusting 13 9.4
2018-Apr-23 02:35 146 5 gusting 12 8.9
2018-Apr-23 02:25 154 6 gusting 13 8.9
2018-Apr-23 02:15 142 7 gusting 13 8.9
2018-Apr-23 01:55 145 7 gusting 14 8.9
2018-Apr-23 01:45 136 7 gusting 14 8.9
2018-Apr-23 01:15 170 5 gusting 11 10.0
2018-Apr-23 00:45 147 7 gusting 17 10.0
2018-Apr-23 00:25 160 6 gusting 14 10.0
2018-Apr-23 00:05 149 6 gusting 14 10.0
2018-Apr-22 23:55 171 5 gusting 12 10.0
2018-Apr-22 23:45 150 6 gusting 17 10.0
2018-Apr-22 23:25 144 8 gusting 14 10.0
2018-Apr-22 23:05 152 6 gusting 13 10.0
2018-Apr-22 22:45 144 6 gusting 12 10.0
2018-Apr-22 22:35 138 6 gusting 13 10.0
2018-Apr-22 22:25 150 6 gusting 13 10.0
2018-Apr-22 22:15 139 3 gusting 10 10.0
2018-Apr-22 21:55 129 5 gusting 10 9.4
2018-Apr-22 21:45 139 5 gusting 12 10.0
2018-Apr-22 21:25 148 6 gusting 11 10.0
2018-Apr-22 21:15 150 2 gusting 10 10.6
2018-Apr-22 21:05 144 4 gusting 8 10.6
2018-Apr-22 20:55 147 4 gusting 7 10.6
2018-Apr-22 20:35 145 2 gusting 10 10.6
2018-Apr-22 20:25 145 5 gusting 10 10.6
2018-Apr-22 20:05 176 4 gusting 8 10.6
2018-Apr-22 19:45 166 4 gusting 6 11.1
2018-Apr-22 19:25 181 1 gusting 7 11.7
2018-Apr-22 18:55 181 5 gusting 8 12.2
2018-Apr-22 18:45 181 5 gusting 10 12.2
2018-Apr-22 18:35 182 6 gusting 10 12.8
2018-Apr-22 18:25 199 6 gusting 10 12.8
2018-Apr-22 18:15 185 6 gusting 8 13.3
2018-Apr-22 17:35 172 3 gusting 6 14.4
2018-Apr-22 17:15 149 4 gusting 10 14.4
2018-Apr-22 17:05 147 5 gusting 7 15.0
2018-Apr-22 16:55 163 2 gusting 6 15.6
2018-Apr-22 16:45 164 3 gusting 6 15.6
2018-Apr-22 16:35 153 3 gusting 8 15.6
2018-Apr-22 16:25 070 0 gusting 5 14.4
2018-Apr-22 16:15 073 4 gusting 6 14.4
2018-Apr-22 15:55 078 6 gusting 10 14.4
2018-Apr-22 15:35 059 4 gusting 7 14.4
2018-Apr-22 15:25 053 4 gusting 7 15.0
2018-Apr-22 15:15 075 5 gusting 7 15.0
2018-Apr-22 14:55 048 2 gusting 6 15.0
2018-Apr-22 14:35 056 2 gusting 6 15.6
2018-Apr-22 14:25 053 2 gusting 6 15.6
2018-Apr-22 14:15 063 4 gusting 7 15.0
2018-Apr-22 13:45 085 1 gusting 5 16.7
2018-Apr-22 13:35 189 0 gusting 2 17.2
2018-Apr-22 13:25 189 1 gusting 4 17.2
2018-Apr-22 13:15 170 2 gusting 2 17.2
2018-Apr-22 13:05 168 2 gusting 4 16.7
2018-Apr-22 12:55 168 0 gusting 2 16.7
2018-Apr-22 12:45 168 1 gusting 4 16.7
2018-Apr-22 12:35 168 0 gusting 2 16.1
2018-Apr-22 12:25 167 0 gusting 5 16.7
2018-Apr-22 11:45 167 0 gusting 4 16.1
2018-Apr-22 11:35 166 1 gusting 4 15.6
2018-Apr-22 11:25 165 1 gusting 2 15.0
2018-Apr-22 11:15 169 1 gusting 2 13.9
2018-Apr-22 10:45 194 0 gusting 2 13.9